Location: Dal�� Lhota
(48.7500°N, 14.0167°E)
Time: 01:55:21
(UTC+00:00)

ATLAS 3B R/B - Pass Details

Date: 24 September 2020
Orbit: 1016 x 1179 km, 63.8° (Epoch: 28 October)

Event Time Altitude Azimuth Distance (km) Brightness Sun altitude
Rises 18:29:22 0° 318° (NW) 3,816 6.7 -15.9°
Reaches altitude 10° 18:32:02 10° 322° (NW) 2,880 5.8 -16.3°
Maximum altitude 18:38:45 57° 41° (NE) 1,259 2.9 -17.3°
Enters shadow 18:42:34 27° 109° (ESE) 1,958 3.5 -17.9°
